Find Starlink 32426

NORAD ID: 61681 Int'l Des: 2024-193 Owner: SPXS Country: US Constellation: starlink operational
LEOCIRCULAR

現在のビュー

3D地球を読み込み中...

About Starlink 32426

Starlink 32426 (NORAD 61681) is a starlink constellation satellite (v2 mini) launched Oct 26, 2024 by SPXS of US. It operates in LEO, CIRCULAR orbit with a mass of 730.00 kg.

次回通過

Passes for default location (London). Set your location on the main map for personalized predictions.

高度履歴

Loading altitude history...

軌道要素

1 61681U 24193W 26263.26380259 .00000555 00000-0 27569-4 0 9993
2 61681 53.1596 266.7403 0000888 74.3795 285.7306 15.34391388106328
Epoch: Sep 20, 2026 • Age: 30 hours

現在のステータス

高度 463.8 km
遠地点 / 近地点 N/A
速度 7.64 km/s
衛星直下点 27.75°N, 132.56°W
打ち上げ日 Oct 26, 2024
運用期間 1.9 years
タイプ internet

技術仕様

分類 Payload
質量 730.00 kg
乾燥質量 700.00 kg
長さ 0.30 m
スパン 29.00 m
形状 ? Box + pan
製造者 SPXS
バスタイプ Starlink V2M
フェーズステータス In Orbit
所有者/国 SPXS/US

Most Searched